Weather History for KHIF - October, 2012

Change the Weather History Date:

Sunday, October 14, 2012

  Actual Average Record
Temperature  
Mean Temperature 54 °F -  
Max Temperature 63 °F 60 °F 73 °F (2011)
Min Temperature 44 °F 40 °F 30 °F (2008)
Degree Days  
Heating Degree Days 12    
Growing Degree Days 4 (Base 50)    
Moisture  
Dew Point 38 °F    
Average Humidity 57    
Maximum Humidity 80    
Minimum Humidity 33    
Precipitation  
Precipitation 0.00 in - - ()
Sea Level Pressure  
Sea Level Pressure 30.21 in    
Wind  
Wind Speed 10 mph (SE)    
Max Wind Speed 16 mph    
Max Gust Speed -    
Visibility 10 miles    
Events Rain    
Averages and records for this station are not official NWS values.
T = Trace of Precipitation, MM = Missing Value Source: NWS Daily Summary

Daily Weather History Graph

Daily Weather History Graph

Search for Another Location

Airport or City:

Trip Planner

Search our weather history database for the weather conditions in past years. The results will help you decide how hot, cold, wet, or windy it might be!

Date:

Astronomy

Oct. 14, 2012 Rise Set
Actual Time 7:38 AM MDT 6:47 PM MDT
Civil Twilight 7:11 AM MDT 7:15 PM MDT
Nautical Twilight 6:39 AM MDT 7:47 PM MDT
Astronomical Twilight 6:07 AM MDT 8:19 PM MDT
Moon 6:42 AM MDT (10/14) 6:09 PM MDT (10/14)
Length of Visible Light 12h 04m
Length of Day
11h 08m
Waning Crescent, 1% of the Moon is Illuminated
Oct 14
Waning Crescent
Oct 15
New
Oct 21
First Quarter
Oct 29
Full
Nov 6
Last Quarter

Hourly Weather History & Observations

Time (MDT) Temp. Windchill Dew Point Humidity Pressure Visibility Wind Dir Wind Speed Gust Speed Precip Events Conditions
12:55 AM 48.9 °F - 41.4 °F 75% 30.20 in 10.0 mi ESE 12.7 mph - N/A   Clear
1:55 AM 47.8 °F - 41.0 °F 77% 30.24 in 10.0 mi ESE 16.1 mph - N/A   Clear
2:55 AM 47.3 °F - 40.6 °F 78% 30.24 in 10.0 mi ESE 12.7 mph - N/A   Clear
3:55 AM 46.6 °F - 40.3 °F 79% 30.24 in 10.0 mi ESE 13.8 mph - N/A   Clear
4:55 AM 46.0 °F 40.2 °F 39.9 °F 79% 30.25 in 10.0 mi ESE 12.7 mph - N/A   Clear
5:55 AM 45.3 °F 39.0 °F 39.2 °F 79% 30.26 in 10.0 mi ESE 13.8 mph - N/A   Clear
6:55 AM 45.0 °F 38.5 °F 38.8 °F 79% 30.27 in 10.0 mi ESE 13.8 mph - N/A   Clear
7:55 AM 44.1 °F 38.1 °F 38.1 °F 80% 30.30 in 10.0 mi ESE 11.5 mph - N/A   Clear
8:55 AM 46.0 °F 39.9 °F 38.8 °F 76% 30.30 in 10.0 mi ESE 13.8 mph - N/A   Clear
9:55 AM 49.3 °F - 39.7 °F 70% 30.30 in 10.0 mi ESE 12.7 mph - N/A   Clear
10:55 AM 52.7 °F - 40.6 °F 64% 30.30 in 10.0 mi ESE 10.4 mph - N/A   Clear
11:55 AM 57.6 °F - 42.3 °F 57% 30.27 in 10.0 mi Variable 3.5 mph - N/A   Clear
12:55 PM 60.4 °F - 39.0 °F 45% 30.24 in 10.0 mi South 8.1 mph - N/A   Clear
1:55 PM 61.9 °F - 37.0 °F 40% 30.22 in 10.0 mi South 6.9 mph - N/A   Clear
2:55 PM 62.4 °F - 39.7 °F 43% 30.20 in 10.0 mi WSW 6.9 mph - N/A   Clear
3:55 PM 63.3 °F - 38.1 °F 39% 30.19 in 10.0 mi WSW 5.8 mph - N/A   Clear
4:55 PM 62.8 °F - 34.3 °F 35% 30.18 in 10.0 mi Calm Calm - N/A   Clear
5:55 PM 62.1 °F - 32.2 °F 33% 30.17 in 10.0 mi South 4.6 mph - N/A   Clear
6:55 PM 58.1 °F - 34.2 °F 41% 30.17 in 10.0 mi South 3.5 mph - N/A   Clear
7:30 PM 59.0 °F - 35.6 °F 42% 30.16 in 10.0 mi Calm Calm - N/A Rain Light Rain
7:40 PM 57.2 °F - 35.6 °F 44% 30.18 in 10.0 mi East 3.5 mph - N/A   Clear
7:52 PM 57.2 °F - 33.8 °F 41% 30.18 in 10.0 mi Calm Calm - N/A Rain Light Rain
7:55 PM 57.2 °F - 35.4 °F 44% 30.18 in 10.0 mi East 3.5 mph - 0.00 in Rain Light Rain
8:00 PM 57.2 °F - 35.6 °F 44% 30.18 in 10.0 mi Calm Calm - N/A   Clear
8:55 PM 54.5 °F - 35.8 °F 49% 30.18 in 10.0 mi East 4.6 mph - 0.00 in   Clear
9:55 PM 53.1 °F - 36.9 °F 54% 30.15 in 10.0 mi East 9.2 mph - N/A   Clear
10:55 PM 52.2 °F - 36.3 °F 55% 30.14 in 10.0 mi ESE 10.4 mph - N/A   Clear
11:55 PM 51.6 °F - 36.5 °F 56% 30.10 in 10.0 mi ESE 11.5 mph - N/A   Clear